COSMOS 2251 DEB

Satellite information

Favourite Embed

Satellite Type and Status

DEBRISIN ORBIT

Key statistics

Satellite COSMOS 2251 DEB at a glance.

Uptime

11650

Days in orbit

Revolutions

≈ 14.8

Per day

Orbit

LEO

Low Earth Orbit

Inclination

74.0

Latest

Satellite identification and parameters

Extended collection of information and parameters for COSMOS 2251 DEB.

Object identification

Identified? True

Debris? True

Object name: COSMOS 2251 DEB

International designator: 1993-036BTL

Object number (NORAD): 38220

Object ID (CCSDS): 38220

Country: COMMONWEALTH OF INDEPENDENT STATES (CIS)

Current information (Y/N): Y

RCS size: SMALL

Orbital parameters

Period: 97.167 minutes

Inclination: 74.017 deg

SMA: 7001.227 km

Apoapsis: 631.592 km

Periapsis: 614.592 km

RAAN: 143.3927 deg

Eccentricy: 0.0012141

Argument of periapsis: 262.1842 deg

Mean anomaly: 97.7957 deg

Mean motion: 14.81977284 rev/day

Mean motion (dot): 0.00019551 rev/day2

B* drag term: 0.0024592 1/REarth

Two-line elements (TLE)

Creation date: May 9, 2025, 2:46 a.m.

Reference frame: TEME

Reference center: EARTH

Epoch: May 8, 2025, 7:35 a.m. UTC

TLE line 0: 0 COSMOS 2251 DEB

TLE line 1: 1 38220U 93036BTL 25128.31604679 .00019551 00000-0 24592-2 0 9995

TLE line 2: 2 38220 74.0170 143.3927 0012141 262.1842 97.7957 14.81977284681256

Live tracking on map

Real-time ground track for satellite COSMOS 2251 DEB.

In-orbit conjunctions

A list of the most updated potential collisions computed for object COSMOS 2251 DEB.

Target Orbit TCA Probability of collision Miss distance Type
PSLV R/B SSO 2025-04-15 15:57:26 0.0002627967 217.0 (m) ROCKET BODY
DMSP 5D-2 F11 DEB SSO 2024-11-12 09:47:28 0.0004627866 248.0 (m) DEBRIS

Associated space launch

Military communications satellite. Destroyed in a collision with Iridium 33.

COSMOS 2251 DEB was lifted into orbit during the mission ‘Kosmos-3M | Strela-2M 51’, on board a Kosmos-3M space rocket.

The launch took place on June 16, 1993, 4:17 a.m. from 132/1 (132L).

For more information about the launch, click the button.

Launch to space Kosmos-3M | Strela-2M 51
Kosmos-3M | Strela-2M 51

Agency: N/A

Status: Launch Successful

Launch date: June 16, 1993, 4:17 a.m. UTC

Rocket: Kosmos-3M

Launch pad: 132/1 (132L)

Location: Plesetsk Cosmodrome, Russian Federation

...

Latest news about this satellite

There are no fresh news available about this satellite. Check back as we update our databases every day.


Newsletter sign-up

Weekly statistics, charts and insights to help you stay on top of the space industry.